sat.trackr.live / text

‹ back to catalog

QIANFAN-26

NORAD 61559 · 2024-185H

PAYLOAD ACTIVE UNKNOWN

§ Identity

Operator
Country
PRC
Launch date
2024-10-15
Launch site
TAISC
Launch vehicle
Mass (kg)
RCS (m²)

External: N2YO · Heavens-Above · Gunter

§ Orbital elements

Epoch: 2026-09-22T20:01:53.501664Z

Period
104.50 min
Inclination
88.9839°
Eccentricity
0.0004534
Mean motion
13.77946273 rev/d
Perigee alt
967.8 km
Apogee alt
974.5 km
Semi-major
7,349.3 km
B*
1.9152e-4
RAAN
49.0902°
Arg perigee
215.4402°
Mean anomaly
144.6463°
Rev number
10,779

§ Raw data

QIANFAN-261 61559U 24185H   26265.83464701  .00000205  00000+0  19152-3 0  99972 61559  88.9839  49.0902 0004534 215.4402 144.6463 13.77946273107792

JSON: /api/v1/satellites/61559 · /tle

For live sub-satellite position, see the globe view (requires WebGL).

§ Visibility from observer

Set your observer location to see the next 7 days of passes ≥ 10°. The values pass through the URL so the page stays shareable.

No JS? Fill the form by hand. The geolocation button needs JavaScript.